DIRECTV 11

Last updated on Thu Sep 24 2026 00:03:16 GMT+0000 (Coordinated Universal Time)

1 32729U 08013A 26266.45025490 -.00000126 00000+0 00000+0 0 9994 2 32729 0.0223 50.2893 0000656 335.7542 39.1827 1.00264258 46575
UTC large
Height (km)
Speed (km/s)
/
Latitude / Longitude
Inclination (degrees)
Orbital Period (minutes)
Azimuth
Elevation
Range (km)
Doppler Factor

Next 0 passes for location: London (51.5072 / 0.1276)

No passes found over London.
DIRECTV 11